Time,TemperatureF,DewpointF,PressureIn,WindDirection,WindDirectionDegrees,WindSpeedMPH,WindSpeedGustMPH,Humidity,HourlyPrecipIn,Conditions,Clouds,dailyrainin,SoftwareType,DateUTC
2013-11-30 00:07:00,29.1,21.0,30.74,ESE,113,0.0,-999.0,73,-99.99,,,0.00,weatherlink.com 1.10,2013-11-30 05:07:00,
2013-11-30 00:22:00,29.0,21.0,30.73,ESE,113,0.0,-999.0,73,-99.99,,,0.00,weatherlink.com 1.10,2013-11-30 05:22:00,
2013-11-30 00:37:00,28.9,21.0,30.73,ESE,113,0.0,-999.0,73,-99.99,,,0.00,weatherlink.com 1.10,2013-11-30 05:37:00,
2013-11-30 00:52:00,28.8,21.0,30.74,ESE,113,0.0,-999.0,73,-99.99,,,0.00,weatherlink.com 1.10,2013-11-30 05:52:00,
2013-11-30 01:07:00,28.7,21.0,30.74,ESE,113,0.0,-999.0,73,-99.99,,,0.00,weatherlink.com 1.10,2013-11-30 06:07:00,
2013-11-30 01:23:00,28.4,21.0,30.74,ESE,113,0.0,-999.0,74,-99.99,,,0.00,weatherlink.com 1.10,2013-11-30 06:23:00,
2013-11-30 01:38:00,28.1,21.0,30.74,ESE,113,0.0,-999.0,74,-99.99,,,0.00,weatherlink.com 1.10,2013-11-30 06:38:00,
2013-11-30 01:53:00,27.9,21.0,30.74,ESE,113,0.0,-999.0,74,-99.99,,,0.00,weatherlink.com 1.10,2013-11-30 06:53:00,
2013-11-30 02:08:00,27.8,21.0,30.74,ESE,113,0.0,-999.0,74,-99.99,,,0.00,weatherlink.com 1.10,2013-11-30 07:08:00,
2013-11-30 02:23:00,27.7,20.0,30.75,ESE,113,0.0,-999.0,74,-99.99,,,0.00,weatherlink.com 1.10,2013-11-30 07:23:00,
2013-11-30 02:38:00,27.5,20.0,30.74,ESE,113,0.0,-999.0,74,-99.99,,,0.00,weatherlink.com 1.10,2013-11-30 07:38:00,
2013-11-30 02:53:00,27.4,20.0,30.75,ESE,113,0.0,-999.0,74,-99.99,,,0.00,weatherlink.com 1.10,2013-11-30 07:53:00,
2013-11-30 03:08:00,27.2,20.0,30.74,ESE,111,0.0,-999.0,74,-99.99,,,0.00,weatherlink.com 1.10,2013-11-30 08:08:00,
2013-11-30 03:23:00,27.2,20.0,30.74,ENE,60,2.0,-999.0,74,-99.99,,,0.00,weatherlink.com 1.10,2013-11-30 08:23:00,
2013-11-30 03:38:00,27.2,20.0,30.74,ENE,67,0.0,-999.0,74,-99.99,,,0.00,weatherlink.com 1.10,2013-11-30 08:38:00,
2013-11-30 03:53:00,27.2,20.0,30.74,ENE,67,0.0,-999.0,74,-99.99,,,0.00,weatherlink.com 1.10,2013-11-30 08:53:00,
2013-11-30 04:08:00,27.1,20.0,30.74,ENE,67,0.0,-999.0,74,-99.99,,,0.00,weatherlink.com 1.10,2013-11-30 09:08:00,
2013-11-30 04:24:00,27.2,20.0,30.74,ENE,67,0.0,-999.0,74,-99.99,,,0.00,weatherlink.com 1.10,2013-11-30 09:24:00,
2013-11-30 04:39:00,27.1,20.0,30.74,ENE,67,1.0,-999.0,74,-99.99,,,0.00,weatherlink.com 1.10,2013-11-30 09:39:00,
2013-11-30 04:54:00,27.2,20.0,30.74,East,80,0.0,-999.0,73,-99.99,,,0.00,weatherlink.com 1.10,2013-11-30 09:54:00,
2013-11-30 05:09:00,27.1,20.0,30.74,East,80,0.0,-999.0,73,-99.99,,,0.00,weatherlink.com 1.10,2013-11-30 10:09:00,
2013-11-30 05:24:00,27.0,19.0,30.74,East,93,0.0,-999.0,73,-99.99,,,0.00,weatherlink.com 1.10,2013-11-30 10:24:00,
2013-11-30 05:39:00,26.8,20.0,30.75,East,93,0.0,-999.0,74,-99.99,,,0.00,weatherlink.com 1.10,2013-11-30 10:39:00,
2013-11-30 05:54:00,26.8,20.0,30.75,East,93,0.0,-999.0,74,-99.99,,,0.00,weatherlink.com 1.10,2013-11-30 10:54:00,
2013-11-30 06:09:00,26.6,20.0,30.75,East,89,0.0,-999.0,75,-99.99,,,0.00,weatherlink.com 1.10,2013-11-30 11:09:00,
2013-11-30 06:24:00,26.4,20.0,30.75,East,89,0.0,-999.0,75,-99.99,,,0.00,weatherlink.com 1.10,2013-11-30 11:24:00,
2013-11-30 06:39:00,26.3,19.0,30.76,East,89,0.0,-999.0,75,-99.99,,,0.00,weatherlink.com 1.10,2013-11-30 11:39:00,
2013-11-30 06:54:00,26.1,19.0,30.76,East,89,0.0,-999.0,75,-99.99,,,0.00,weatherlink.com 1.10,2013-11-30 11:54:00,
2013-11-30 07:09:00,25.9,19.0,30.77,East,89,0.0,-999.0,76,-99.99,,,0.00,weatherlink.com 1.10,2013-11-30 12:09:00,
2013-11-30 07:25:00,25.9,19.0,30.77,East,89,0.0,-999.0,76,-99.99,,,0.00,weatherlink.com 1.10,2013-11-30 12:25:00,
2013-11-30 07:40:00,26.0,19.0,30.77,East,89,0.0,-999.0,75,-99.99,,,0.00,weatherlink.com 1.10,2013-11-30 12:40:00,
2013-11-30 07:55:00,26.3,19.0,30.76,East,89,0.0,-999.0,75,-99.99,,,0.00,weatherlink.com 1.10,2013-11-30 12:55:00,
2013-11-30 08:10:00,26.6,19.0,30.76,East,89,0.0,-999.0,74,-99.99,,,0.00,weatherlink.com 1.10,2013-11-30 13:10:00,
2013-11-30 08:25:00,27.2,20.0,30.77,ENE,69,0.0,-999.0,73,-99.99,,,0.00,weatherlink.com 1.10,2013-11-30 13:25:00,
2013-11-30 08:40:00,28.0,20.0,30.77,NE,55,0.0,-999.0,73,-99.99,,,0.00,weatherlink.com 1.10,2013-11-30 13:40:00,
2013-11-30 21:18:00,28.4,21.0,30.53,SE,132,0.0,-999.0,73,-99.99,,,0.00,weatherlink.com 1.10,2013-12-01 02:18:00,
2013-11-30 21:29:00,28.3,21.0,30.54,SE,132,0.0,-999.0,73,-99.99,,,0.00,weatherlink.com 1.10,2013-12-01 02:29:00,
2013-11-30 21:44:00,28.1,21.0,30.53,SE,132,0.0,-999.0,74,-99.99,,,0.00,weatherlink.com 1.10,2013-12-01 02:44:00,
2013-11-30 21:59:00,28.0,21.0,30.53,SE,132,0.0,-999.0,74,-99.99,,,0.00,weatherlink.com 1.10,2013-12-01 02:59:00,
2013-11-30 22:14:00,28.0,20.0,30.52,SE,134,0.0,-999.0,73,-99.99,,,0.00,weatherlink.com 1.10,2013-12-01 03:14:00,
2013-11-30 22:29:00,28.1,20.0,30.52,SE,136,0.0,-999.0,73,-99.99,,,0.00,weatherlink.com 1.10,2013-12-01 03:29:00,
2013-11-30 22:44:00,28.1,20.0,30.51,SE,136,0.0,-999.0,73,-99.99,,,0.00,weatherlink.com 1.10,2013-12-01 03:44:00,
2013-11-30 22:59:00,28.0,20.0,30.51,SE,136,0.0,-999.0,73,-99.99,,,0.00,weatherlink.com 1.10,2013-12-01 03:59:00,
2013-11-30 23:14:00,27.9,20.0,30.51,SE,136,0.0,-999.0,73,-99.99,,,0.00,weatherlink.com 1.10,2013-12-01 04:14:00,
2013-11-30 23:29:00,27.6,20.0,30.50,SE,136,0.0,-999.0,73,-99.99,,,0.00,weatherlink.com 1.10,2013-12-01 04:29:00,
2013-11-30 23:44:00,27.4,20.0,30.50,SE,136,0.0,-999.0,75,-99.99,,,0.00,weatherlink.com 1.10,2013-12-01 04:44:00,